GW6725 Weather Reports


time (UTC)temp
C
wind
direction
speed
KPH
gust
KPH
rain 1hr
cm
rain 24hr
cm
rain mn
cm
humidity
%
barometer
mb
20260506114527 15 102 3.2 3.2 0.00 0.00 0.00 87 1018.3
20260506113527 15 104 3.2 4.8 0.00 0.00 0.00 87 1018.2
20260506112547 15 111 1.6 3.2 0.00 0.00 0.00 87 1018.2
20260506111527 15 106 3.2 3.2 0.00 0.00 0.00 87 1018.1
20260506110527 15 98 3.2 4.8 0.00 0.00 0.00 87 1018.1
20260506105527 15 111 1.6 1.6 0.00 0.00 0.00 87 1018.0
20260506104527 15 109 1.6 4.8 0.00 0.00 0.00 87 1017.9
20260506103528 15 108 1.6 3.2 0.00 0.00 0.00 87 1017.8
20260506102528 15 101 3.2 4.8 0.00 0.00 0.00 87 1017.8
20260506101529 15 106 1.6 3.2 0.00 0.00 0.00 88 1017.7
20260506100528 15 108 4.8 6.4 0.00 0.00 0.00 87 1017.7
20260506095529 15 106 3.2 4.8 0.00 0.00 0.00 87 1017.6
20260506094609 15 106 3.2 4.8 0.00 0.00 0.00 87 1017.6
20260506093549 15 107 4.8 6.4 0.00 0.00 0.00 87 1017.6
20260506092520 15 106 6.4 8.0 0.00 0.00 0.00 87 1017.5
20260506091540 15 106 4.8 9.7 0.00 0.00 0.00 86 1017.5
20260506090520 15 108 4.8 9.7 0.00 0.00 0.00 85 1017.5
20260506085520 15 103 4.8 8.0 0.00 0.00 0.00 85 1017.5
20260506084530 15 102 4.8 8.0 0.00 0.00 0.00 85 1017.5
20260506083530 15 107 4.8 8.0 0.00 0.00 0.00 86 1017.5
20260506082530 15 106 6.4 8.0 0.00 0.00 0.00 86 1017.5
20260506081530 15 104 4.8 6.4 0.00 0.00 0.00 86 1017.5
20260506080521 15 106 3.2 8.0 0.00 0.00 0.00 87 1017.4
20260506072531 16 92 3.2 4.8 0.00 0.00 0.00 84 1017.1
20260506071531 16 100 3.2 6.4 0.00 0.00 0.00 85 1017.0
20260506070532 16 103 3.2 4.8 0.00 0.00 0.00 84 1017.0
20260506061532 16 113 1.6 3.2 0.00 0.18 0.05 84 1016.7
20260506060518 16 114 3.2 4.8 0.00 0.25 0.05 85 1016.6
20260506050537 17 224 1.6 4.8 0.00 0.43 0.05 83 1016.1
20260506044517 17 111 3.2 4.8 0.00 0.48 0.05 82 1015.9
20260506043520 17 143 1.6 3.2 0.00 0.58 0.05 82 1015.8
20260506042520 17 121 1.6 4.8 0.00 0.69 0.05 82 1015.6
20260506041540 17 198 1.6 3.2 0.00 0.76 0.05 82 1015.4
20260506040538 17 196 1.6 3.2 0.00 0.84 0.05 81 1015.3
20260506035538 17 111 1.6 3.2 0.00 0.89 0.05 81 1015.2
20260506034538 17 194 1.6 3.2 0.00 0.94 0.05 80 1015.0
20260506033518 17 112 1.6 4.8 0.00 1.04 0.05 80 1015.0
20260506032518 17 120 1.6 3.2 0.00 1.12 0.05 79 1014.9
20260506031519 17 139 3.2 6.4 0.00 1.19 0.05 78 1014.7
20260506030519 18 113 6.4 11.3 0.00 1.30 0.05 77 1014.5
20260506025600 18 108 6.4 11.3 0.00 1.47 0.05 77 1014.4
20260506024540 18 90 4.8 8.0 0.00 1.57 0.05 78 1014.2
20260506023520 18 99 4.8 8.0 0.00 1.60 0.05 77 1014.2
20260506022520 18 87 6.4 12.9 0.00 1.60 0.05 76 1014.0
20260506021520 18 100 4.8 8.0 0.00 1.60 0.05 77 1013.9
20260506020520 18 111 4.8 8.0 0.00 1.63 0.05 76 1013.8
20260506015520 18 101 8.0 12.9 0.00 1.65 0.05 76 1013.8
20260506014517 18 107 6.4 11.3 0.00 1.65 0.05 76 1013.8
20260506013520 18 108 6.4 12.9 0.00 1.85 0.05 75 1013.8
20260506012521 18 102 6.4 11.3 0.00 2.13 0.05 74 1013.7
20260506011521 18 101 6.4 11.3 0.00 2.36 0.05 74 1013.6
20260506010521 18 95 9.7 12.9 0.00 2.59 0.05 74 1013.5
20260506005521 19 85 9.7 14.5 0.00 2.74 0.05 71 1013.5
20260506004558 19 89 9.7 14.5 0.00 2.84 0.05 71 1013.5
20260506003558 19 105 3.2 8.0 0.00 2.90 0.05 68 1013.5
20260506002517 19 98 3.2 9.7 0.00 2.95 0.05 69 1013.6
20260506001542 19 102 4.8 8.0 0.00 3.05 0.05 67 1013.5
20260506000542 19 105 4.8 6.4 0.00 3.07 0.05 69 1013.5
20260505235542 20 141 1.6 4.8 0.00 3.07 0.05 69 1013.5
20260505234543 19 180 1.6 4.8 0.00 3.12 0.05 68 1013.5
20260505233523 20 169 3.2 6.4 0.00 3.15 0.05 70 1013.6
20260505232543 20 116 3.2 4.8 0.00 3.17 0.05 67 1013.6
20260505231519 20 96 3.2 8.0 0.00 3.23 0.05 67 1013.6
20260505230523 20 90 3.2 8.0 0.00 3.25 0.05 66 1013.7
20260505225524 20 232 3.2 6.4 0.00 3.25 0.05 67 1013.7
20260505224524 21 232 4.8 6.4 0.00 3.28 0.05 62 1013.9
20260505223523 20 195 3.2 6.4 0.00 3.30 0.05 66 1014.0
20260505222524 19 244 1.6 4.8 0.00 3.38 0.05 71 1014.1
20260505221524 19 322 3.2 8.0 0.00 3.43 0.05 67 1014.2
20260505220520 18 313 1.6 9.7 0.00 3.43 0.05 72 1014.4
20260505215524 18 266 4.8 8.0 0.00 3.45 0.05 73 1014.5
20260505214524 18 144 1.6 3.2 0.00 3.51 0.05 73 1014.6
20260505213540 17 211 1.6 8.0 0.00 3.56 0.05 77 1014.7
20260505212524 17 214 1.6 4.8 0.00 3.56 0.05 76 1014.7
20260505211525 17 228 4.8 9.7 0.00 3.58 0.05 77 1014.8
20260505210525 17 234 3.2 8.0 0.00 3.61 0.05 78 1014.8
20260505205525 16 286 3.2 6.4 0.00 3.63 0.05 79 1014.8
20260505204525 16 266 3.2 8.0 0.00 3.63 0.05 79 1014.8
20260505203525 16 234 3.2 4.8 0.00 3.66 0.05 79 1014.8
20260505202526 16 245 4.8 8.0 0.00 3.66 0.05 79 1014.9
20260505201526 16 230 3.2 8.0 0.00 3.71 0.05 80 1014.9
20260505200522 16 265 4.8 12.9 0.00 3.73 0.05 80 1015.0
20260505195527 17 229 3.2 6.4 0.00 3.78 0.05 78 1015.1
20260505194542 17 216 3.2 9.7 0.00 3.81 0.05 79 1015.2
20260505193522 17 270 6.4 9.7 0.00 3.81 0.05 79 1015.2
20260505192526 17 246 3.2 6.4 0.00 3.81 0.05 77 1015.3
20260505191526 16 249 3.2 6.4 0.00 3.81 0.05 80 1015.3
20260505190527 16 228 4.8 6.4 0.00 3.81 0.05 82 1015.3
20260505185527 16 248 3.2 6.4 0.00 3.81 0.05 80 1015.3
20260505184523 16 350 3.2 8.0 0.00 3.84 0.05 81 1015.3
20260505183527 15 230 3.2 8.0 0.00 3.84 0.05 86 1015.4
20260505182528 15 235 1.6 4.8 0.00 3.84 0.05 85 1015.4
20260505181527 15 252 3.2 6.4 0.00 3.84 0.05 86 1015.3
20260505180528 14 282 4.8 6.4 0.00 3.84 0.05 88 1015.4
20260505175529 14 279 1.6 4.8 0.00 3.84 0.05 88 1015.4
20260505174528 13 289 3.2 4.8 0.00 3.84 0.05 90 1015.4
20260505173528 13 239 3.2 6.4 0.00 3.84 0.05 90 1015.4
20260505172529 13 241 3.2 6.4 0.00 3.84 0.05 90 1015.4
20260505171529 13 219 1.6 6.4 0.00 3.84 0.05 90 1015.4
20260505170529 13 204 3.2 3.2 0.00 3.84 0.05 91 1015.5
20260505165529 13 110 4.8 6.4 0.00 3.84 0.05 92 1015.5
20260505164519 13 104 6.4 9.7 0.00 3.84 0.05 93 1015.3
20260505163519 13 108 6.4 9.7 0.00 3.84 0.05 94 1015.3
20260505162530 12 101 4.8 6.4 0.00 3.84 0.05 96 1015.2
20260505161520 12 107 6.4 9.7 0.00 3.84 0.05 95 1015.2
20260505160530 12 106 4.8 8.0 0.00 3.84 0.05 96 1015.3
20260505152600 12 106 6.4 9.7 0.00 3.84 0.05 99 1014.9
20260505151521 12 108 6.4 11.3 0.00 3.84 0.05 99 1014.8
20260505150521 12 110 8.0 12.9 0.00 3.84 0.05 99 1014.8
20260505140522 11 109 8.0 12.9 0.00 3.84 0.05 99 1014.3
20260505124523 11 109 6.4 11.3 0.00 3.86 0.05 99 1013.9
20260505123520 11 102 3.2 6.4 0.00 3.86 0.05 99 1013.9
20260505122521 11 114 3.2 4.8 0.00 3.86 0.05 99 1013.9
20260505121521 11 101 4.8 4.8 0.00 3.86 0.05 99 1013.9
20260505120520 11 108 3.2 6.4 0.00 3.86 0.05 99 1014.0
20260505115520 11 104 3.2 4.8 0.00 3.86 0.05 99 1014.0